Main page
METAR-TAF:

METAR-TAF

Airports :

Spadeadam, England

RAF Spadeadam

latitude: 55-03N, longitude: 002-33W, elevation: 325 m

Current weather observation

The report was made 53 minutes ago, at 01:50 UTC
Wind 7 kt from the North
Temperature 12°C
Humidity 100%
Pressure 1014 hPa
Visibility: 6000 m
mist

METAR: EGOM 240150Z AUTO 36007KT 6000 BR BKN003/// 12/12 Q1014

Time: 03:43 (02:43 UTC)


TAF: missing

Weather observations and forecasts of more than 4000 airports (METAR and TAF reports).

The available stations are represented by yellow and red dots on the map.

Hover mouse over dot to see the name of the station.

Then click to see weather observations and forecasts.

To change the map : click on the green buttons with a black cross to zoom in, on the green button with a dash to zoom out, or on the green arrows for adjacent maps.


METAR-TAF: